Tracking 27111 objects as of 29-Mar-2023
HD Live streaming from Space Station
objects crossing your sky now

COSMOS 2491 DEB

Track COSMOS 2491 DEB now!
10-day predictions


NORAD ID: 45130
Int'l Code: 2013-076AB
Perigee: 1,332.3 km
Apogee: 1,499.7 km
Inclination: 82.5 °
Period: 114.0 minutes
Semi major axis: 7786 km
RCS: Unknown
Launch date: December 25, 2013
Source: Commonwealth of Independent States (former USSR) (CIS)
Launch site: PLESETSK MISSILE AND SPACE COMPLEX (PKMTR)

Note: This is SATELLITE DEBRIS
Your satellite tracking list
Your tracking list is empty




NASA's NSSDC Master Catalog

Two Line Element Set (TLE):
1 45130U 13076AC  23086.86907543  .00004206  00000-0  22598-1 0  9990
2 45130  82.4578 154.4759 0107507 280.6262  78.2736 12.63426379145501
Source of the keplerian elements: AFSPC